Satellite: RS-38
Catalog number: 35869
Epoch time: 10224.53770658
Element set: 567
Inclination: 098.7530 deg
RA of node: 277.9577 deg
Eccentricity: 0.0004134
Arg of perigee: 192.9379 deg
Mean anomaly: 167.1658 deg
Mean motion: 14.21986469 rev/day
Decay rate: 1.77e-06 rev/day^2
Epoch rev: 4673
Checksum: 367
/EX
More information about the Keps
mailing list